DELTA 1 DEB, 10713

Orbit data source: Space-Track

DELTA 1 DEB, 10713 is space debris in SSO originally from a launch on Thu, 29 Jul 1976 UTC launched from the Air Force Western Test Range (AFWTR). Debris objects in space refer to the collection of defunct objects orbiting the Earth. Examples of debris include non-operational satellites, rocket bodies, and fragments generated from explosions, collisions, or faulty payload assembly.

Loading next visibility...
Identifier
10713, 1976-077AJ
Orbit
SSO
Last TLE update
12 hours ago
Origin
Manufacturer
Unknown
Mission
Spacecraft
Bus & Motor
Unknown
Mass
Unknown
Launch date (UTC)
1976-07-29 (49 years ago)
Launch vehicle
Unknown
Launch site
Air Force Western Test Range (AFWTR)
Object type
Payload
Rocket body
Debris
Shape & HBR
Unknown
Radar Cross Section
Small (<0.1 m²)

Expand to show TLE details & history

TLE from 12 hours ago
0 DELTA 1 DEB
1 10713U 76077AJ  25181.91241251  .00001799  00000-0  53979-2 0  9992
2 10713 101.5466 344.1716 0126908 281.4492 234.8472 13.06353057281687
Epoch: 2025-06-30T21:53Z
TLE epoch observation values (Epoch: 2025-06-30T21:53:52.44Z)
Latitude
24.37113°
Longitude
-78.22859°
Altitude
1,296.482 km
Speed
7.183 km/s
True Right ascension
11h 17m 49s
True Declination
24° 15' 04"
Sunlit
Object was in daylight at epoch
Visualization orbit readout
Latitude
-15.15218°
Longitude
100.17794°
Altitude
1,200.303 km
Speed
7.274 km/s
Apparent Right ascension
01h 34m 33s
Apparent Declination
-59° 34' 21"
Sunlit
Object is in daylight
Visualization observer readout
Local Sidereal Time
21:31:14
Azimuth
151.655° SSE
Elevation
-21.344°
Doppler factor
1
Orbital elements
Apogee altitude
1,331.374 km
Perigee altitude
1,138.146 km
Semi-major axis
7,612.897 km
Eccentricity
0.01269
Inclination
101.5466°
RAAN
344.1716°
Arg. of periapsis
281.4492°
True anomaly
Unknown
Mean anomaly
234.8472°
Eccentric anomaly
Unknown
Mean motion
3.26752 °/min
Orbital period
110.18 mins
BSTAR
0.0053979
Loading maneuver chart data...
Loading SW <> Apogee altitude chart data...
Loading historical data...
Loading historical data...
Loading historical data...
Loading historical data...
Loading historical data...
Loading historical data...
Loading historical data...

DELTA 1 DEB Visibility forecast

Observer location: undefined°, undefined°

Span
Click to sort rows by Start time (UTC) header in descending order
Start Az.
Max El. time (UTC)
Max El. Az.
Max El.
End time (UTC)
End Az.
14 mins2025-07-01 10:03:52.740Z142.729° SSE2025-07-01 10:10:52.740Z62.414° ENE40.665°2025-07-01 10:17:52.740Z350.761° N
10 mins2025-07-01 11:54:52.740Z217.35° SW2025-07-01 11:59:52.740Z270.018° WNW24.811°2025-07-01 12:04:52.740Z316.01° NNW
13 mins2025-07-01 23:26:52.740Z26.083° NE2025-07-01 23:32:52.740Z89.9° E41.355°2025-07-01 23:39:52.740Z182.667° SSW
11 mins2025-07-02 01:15:52.740Z351.766° N2025-07-02 01:20:52.740Z304.037° NW26.081°2025-07-02 01:26:52.740Z248.338° W
|